TimeEDT,TemperatureF,Dew PointF,Humidity,Sea Level PressureIn,VisibilityMPH,Wind Direction,Wind SpeedMPH,Gust SpeedMPH,PrecipitationIn,Events,Conditions,WindDirDegrees,DateUTC
12:52 AM,71.1,60.1,68,29.99,10.0,West,6.9,-,N/A,,Clear,280,2013-08-20 04:52:00
1:52 AM,69.1,60.1,73,29.99,10.0,Calm,Calm,-,N/A,,Partly Cloudy,0,2013-08-20 05:52:00
2:52 AM,68.0,61.0,78,29.99,10.0,WSW,5.8,-,N/A,,Clear,240,2013-08-20 06:52:00
3:52 AM,66.9,61.0,81,30.00,10.0,WSW,5.8,-,N/A,,Clear,250,2013-08-20 07:52:00
4:52 AM,66.0,60.1,81,30.01,10.0,West,4.6,-,N/A,,Clear,270,2013-08-20 08:52:00
5:52 AM,64.9,60.1,84,30.03,10.0,West,3.5,-,N/A,,Clear,270,2013-08-20 09:52:00
6:52 AM,64.9,60.1,84,30.04,10.0,Calm,Calm,-,N/A,,Clear,0,2013-08-20 10:52:00
7:52 AM,70.0,61.0,73,30.06,10.0,Calm,Calm,-,N/A,,Clear,0,2013-08-20 11:52:00
8:52 AM,73.0,62.1,68,30.06,10.0,West,3.5,-,N/A,,Clear,260,2013-08-20 12:52:00
9:52 AM,79.0,62.1,56,30.07,10.0,Calm,Calm,-,N/A,,Clear,0,2013-08-20 13:52:00
10:52 AM,81.0,63.0,54,30.08,10.0,WSW,3.5,-,N/A,,Clear,250,2013-08-20 14:52:00
11:52 AM,82.0,61.0,49,30.07,10.0,Variable,3.5,-,N/A,,Clear,0,2013-08-20 15:52:00
12:52 PM,84.0,61.0,46,30.06,10.0,WNW,3.5,-,N/A,,Partly Cloudy,300,2013-08-20 16:52:00
1:52 PM,84.9,62.1,46,30.06,10.0,WNW,6.9,-,N/A,,Partly Cloudy,300,2013-08-20 17:52:00
2:52 PM,87.1,63.0,44,30.05,10.0,Variable,4.6,-,N/A,,Mostly Cloudy,0,2013-08-20 18:52:00
3:52 PM,84.9,64.0,49,30.04,10.0,SSW,8.1,-,N/A,,Partly Cloudy,200,2013-08-20 19:52:00
4:52 PM,84.0,62.1,47,30.04,10.0,SW,8.1,-,N/A,,Partly Cloudy,220,2013-08-20 20:52:00
5:52 PM,82.0,62.1,51,30.06,10.0,SSW,6.9,-,N/A,,Clear,200,2013-08-20 21:52:00
6:52 PM,80.1,61.0,52,30.07,10.0,SSW,4.6,-,N/A,,Clear,200,2013-08-20 22:52:00
7:52 PM,75.0,61.0,62,30.08,10.0,Calm,Calm,-,N/A,,Clear,0,2013-08-20 23:52:00
8:52 PM,69.1,61.0,75,30.09,10.0,Calm,Calm,-,N/A,,Clear,0,2013-08-21 00:52:00
9:52 PM,68.0,61.0,78,30.10,10.0,Calm,Calm,-,N/A,,Clear,0,2013-08-21 01:52:00
10:52 PM,66.0,61.0,84,30.10,10.0,Calm,Calm,-,N/A,,Clear,0,2013-08-21 02:52:00
11:52 PM,64.9,61.0,87,30.10,9.0,Calm,Calm,-,N/A,,Clear,0,2013-08-21 03:52:00